This demonstration page uses our WeatherBlox Daily Observations layout. Learn more.

39.92423, -83.80882

Hourly Observations for September 20, 2016

Temp ( °F °C ) Dew Point ( °F °C ) Humidity (%) Winds ( mph kmh ) Pressure ( in mb ) Visibility ( mi km ) Precip ( " mm )
12:56 am 00:56 Clear 60 15.6 56 13.3 86 86 Calm 30.11 1020 10 16.0934 0 0
1:56 am 01:56 Clear 59 15 56 13.3 90 90 Calm 30.1 1019 10 16.0934 0 0
2:56 am 02:56 Clear 58 14.4 56 13.3 93 93 Calm 30.1 1019 10 16.0934 0 0
3:56 am 03:56 Clear 56 13.3 55 12.8 97 97 Calm 30.12 1020 10 16.0934 0 0
5:56 am 05:56 Clear 55 12.8 54 12.2 96 96 Calm 30.13 1020 10 16.0934 0 0
6:56 am 06:56 Clear 54 12.2 53 11.7 97 97 E 5 7 30.14 1021 10 16.0934 0 0
7:56 am 07:56 Sunny 56 13.3 55 12.8 97 97 NE 3 6 30.16 1021 10 16.0934 0 0
8:56 am 08:56 Sunny 63 17.2 59 15 87 87 Calm 30.18 1022 10 16.0934 0 0
9:56 am 09:56 Sunny 72 22.2 63 17.2 73 73 Calm 30.18 1022 10 16.0934 0 0
10:56 am 10:56 Sunny 78 25.6 57 13.9 48 48 Calm 30.18 1022 10 16.0934 0 0
11:56 am 11:56 Sunny 80 26.7 58 14.4 47 47 Calm 30.18 1022 10 16.0934 0 0
12:56 pm 12:56 Sunny 83 28.3 57 13.9 41 41 VRB 6 9 30.16 1021 10 16.0934 0 0
1:56 pm 13:56 Sunny 84 28.9 56 13.3 38 38 Calm 30.15 1021 10 16.0934 0 0
3:56 pm 15:56 Sunny 86 30 54 12.2 33 33 SE 6 9 30.13 1020 10 16.0934 0 0
4:56 pm 16:56 Sunny 87 30.6 52 11.1 30 30 Calm 30.12 1020 10 16.0934 0 0
5:56 pm 17:56 Sunny 85 29.4 59 15 42 42 NNW 6 9 30.12 1020 10 16.0934 0 0
6:56 pm 18:56 Sunny 81 27.2 63 17.2 54 54 W 3 6 30.13 1020 10 16.0934 0 0
7:56 pm 19:56 Clear 73 22.8 61 16.1 66 66 Calm 30.14 1021 10 16.0934 0 0
8:56 pm 20:56 Clear 67 19.4 60 15.6 79 79 Calm 30.15 1021 10 16.0934 0 0
9:56 pm 21:56 Clear 70 21.1 58 14.4 66 66 Calm 30.16 1021 10 16.0934 0 0
10:56 pm 22:56 Clear 64 17.8 59 15 84 84 NE 3 6 30.15 1021 10 16.0934 0 0
11:56 pm 23:56 Clear 63 17.2 58 14.4 84 84 E 3 6 30.15 1021 10 16.0934 0 0

Powered by AerisWeather